Location: Big Meadows
(38.5260°N, 78.4400°W)
Time: 11:38:01
(UTC-04:00)

H-2A R/B - Visible Passes

Search period start: 03 July 2015 00:00
Search period end: 13 July 2015 00:00
Orbit: 735 x 837 km, 98.5° (Epoch: 03 July)

Date Brightness Start Highest point End Pass type
(mag) Time Alt. Az. Time Alt. Az. Time Alt. Az.
03 Jul 3.1 00:16:09 34° WSW 00:16:52 35° W 00:21:48 10° NNW visible
03 Jul 4.0 22:04:32 11° E 22:07:14 16° ENE 22:10:30 10° NNE visible
03 Jul 2.2 23:45:11 57° SSW 23:46:07 69° WSW 23:51:35 10° NNW visible
04 Jul 2.3 23:14:13 47° SE 23:15:33 63° ENE 23:20:58 10° N visible
05 Jul 4.2 00:54:51 15° W 00:55:31 15° W 00:58:32 10° NW visible
05 Jul 3.1 22:43:15 26° ESE 22:45:06 33° ENE 22:49:59 10° N visible
06 Jul 3.4 00:23:53 29° WSW 00:24:32 30° W 00:29:15 10° NW visible
06 Jul 3.9 22:12:17 14° E 22:14:45 18° ENE 22:18:29 10° NNE visible
06 Jul 2.4 23:52:55 52° SW 23:53:45 58° W 23:59:08 10° NNW visible
07 Jul 2.1 23:21:58 55° SE 23:23:08 74° ENE 23:28:36 10° N visible
08 Jul 4.4 01:02:36 13° W 01:03:14 13° W 01:05:29 10° WNW visible
08 Jul 2.9 22:51:00 31° ESE 22:52:39 39° ENE 22:57:43 10° N visible
09 Jul 3.6 00:31:39 25° WSW 00:32:12 26° W 00:36:38 10° NW visible
09 Jul 3.7 22:20:03 17° E 22:22:16 22° ENE 22:26:24 10° NNE visible
10 Jul 2.6 00:00:41 46° WSW 00:01:22 49° W 00:06:40 10° NNW visible
10 Jul 4.3 21:50:27 10° ENE 21:52:01 11° ENE 21:53:55 10° NE visible
10 Jul 2.1 23:29:44 61° SSE 23:30:43 87° E 23:36:14 10° NNW visible
11 Jul 4.5 01:10:23 11° W 01:10:58 11° W 01:11:54 10° WNW visible
11 Jul 2.7 22:58:47 37° ESE 23:00:13 46° ENE 23:05:26 10° N visible
12 Jul 3.8 00:39:25 22° W 00:39:53 22° W 00:43:57 10° NW visible
12 Jul 3.5 22:27:50 20° E 22:29:49 25° ENE 22:34:14 10° NNE visible
